When you browse on this site, cookies collect data to enhance your experience and personalize the content and advertising you see.
Visit our Privacy Policy to learn more. By continuing to use the site, you agree to this use of cookies and data.
  • In Romania
  • List of Countries
  • For 7 days
  • Water Temperature
  • Satellite Maps
  • Weather Map
  • Weather Widgets
  • user-avatar
    Login

    Hourly Weather Santiago

    Today, 23 May, Thursday

    Time Temperature Precipitation Wind Pressure Humidity
    00:00 +27°C° 0 mm 1 mps 748 mmHg 85%
    01:00 +27°C° 0 mm 1 mps 749 mmHg 85%
    02:00 +25°C° 0 mm 0 mps 748 mmHg 86%
    03:00 +25°C° 0 mm 0 mps 748 mmHg 86%
    04:00 +25°C° 0 mm 0 mps 748 mmHg 86%
    05:00 +25°C° 0 mm 0 mps 748 mmHg 85%
    06:00 +25°C° 0 mm 0 mps 748 mmHg 84%
    07:00 +26°C° 0 mm 0 mps 749 mmHg 82%
    08:00 +29°C° 0.2 mm 1 mps 749 mmHg 77%
    09:00 +30°C° 0.2 mm 1 mps 749 mmHg 72%
    10:00 +32°C° 0.2 mm 2 mps 749 mmHg 67%
    11:00 +32°C° 0.7 mm 2 mps 749 mmHg 64%
    12:00 +34°C° 0.7 mm 2 mps 749 mmHg 62%
    13:00 +35°C° 0.7 mm 2 mps 748 mmHg 59%
    14:00 +34°C° 1.3 mm 2 mps 748 mmHg 61%
    15:00 +34°C° 1.3 mm 2 mps 748 mmHg 62%
    16:00 +34°C° 1.3 mm 2 mps 747 mmHg 64%
    17:00 +31°C° 0.4 mm 1 mps 747 mmHg 70%
    18:00 +30°C° 0.4 mm 1 mps 747 mmHg 76%
    19:00 +29°C° 0.4 mm 1 mps 747 mmHg 82%
    20:00 +29°C° 0 mm 1 mps 748 mmHg 84%
    21:00 +28°C° 0 mm 1 mps 748 mmHg 85%
    22:00 +28°C° 0 mm 1 mps 749 mmHg 86%
    23:00 +28°C° 0 mm 1 mps 748 mmHg 87%

    Tomorrow, 24 May, Friday

    Time Temperature Precipitation Wind Pressure Humidity
    00:00 +27°C° 0 mm 1 mps 748 mmHg 87%
    01:00 +27°C° 0 mm 1 mps 748 mmHg 88%
    02:00 +27°C° 0 mm 1 mps 748 mmHg 88%
    03:00 +27°C° 0 mm 1 mps 748 mmHg 89%
    04:00 +26°C° 0 mm 1 mps 747 mmHg 89%
    05:00 +27°C° 0 mm 1 mps 747 mmHg 88%
    06:00 +27°C° 0 mm 1 mps 748 mmHg 87%
    07:00 +27°C° 0 mm 1 mps 748 mmHg 86%
    08:00 +28°C° 0 mm 2 mps 748 mmHg 79%
    09:00 +30°C° 0 mm 2 mps 748 mmHg 71%
    10:00 +31°C° 0 mm 3 mps 749 mmHg 64%
    11:00 +33°C° 0 mm 3 mps 749 mmHg 61%
    12:00 +34°C° 0 mm 3 mps 748 mmHg 58%
    13:00 +35°C° 0 mm 3 mps 748 mmHg 55%
    14:00 +35°C° 1 mm 3 mps 747 mmHg 58%
    15:00 +34°C° 1 mm 4 mps 747 mmHg 61%
    16:00 +34°C° 1 mm 4 mps 746 mmHg 64%
    17:00 +31°C° 0.4 mm 3 mps 747 mmHg 70%
    18:00 +30°C° 0.4 mm 3 mps 747 mmHg 76%
    19:00 +29°C° 0.4 mm 2 mps 747 mmHg 81%
    20:00 +28°C° 0 mm 2 mps 748 mmHg 83%
    21:00 +28°C° 0 mm 2 mps 748 mmHg 85%
    22:00 +28°C° 0 mm 1 mps 749 mmHg 86%
    23:00 +28°C° 0 mm 1 mps 748 mmHg 87%

    Day after tomorrow, 25 May, Saturday

    Time Temperature Precipitation Wind Pressure Humidity
    00:00 +27°C° 0 mm 1 mps 748 mmHg 87%
    01:00 +27°C° 0 mm 1 mps 748 mmHg 88%
    02:00 +27°C° 0 mm 1 mps 748 mmHg 88%
    03:00 +27°C° 0 mm 1 mps 747 mmHg 88%
    04:00 +27°C° 0 mm 1 mps 747 mmHg 89%
    05:00 +27°C° 0 mm 1 mps 747 mmHg 88%
    06:00 +27°C° 0 mm 1 mps 747 mmHg 87%
    07:00 +27°C° 0 mm 1 mps 747 mmHg 86%
    08:00 +29°C° 0 mm 1 mps 748 mmHg 79%
    09:00 +30°C° 0 mm 2 mps 748 mmHg 72%
    10:00 +32°C° 0 mm 2 mps 748 mmHg 66%
    11:00 +32°C° 0.6 mm 2 mps 748 mmHg 63%
    12:00 +34°C° 0.6 mm 2 mps 748 mmHg 61%
    13:00 +35°C° 0.6 mm 2 mps 748 mmHg 58%
    14:00 +34°C° 1.8 mm 2 mps 747 mmHg 62%
    15:00 +32°C° 1.8 mm 2 mps 747 mmHg 65%
    16:00 +31°C° 1.8 mm 2 mps 746 mmHg 68%
    17:00 +30°C° 0.9 mm 2 mps 746 mmHg 73%
    18:00 +29°C° 0.9 mm 1 mps 747 mmHg 78%
    19:00 +28°C° 0.9 mm 1 mps 747 mmHg 84%
    20:00 +28°C° 0.1 mm 1 mps 748 mmHg 84%
    21:00 +28°C° 0.1 mm 1 mps 748 mmHg 85%
    22:00 +28°C° 0.1 mm 1 mps 749 mmHg 85%
    23:00 +28°C° 0 mm 1 mps 749 mmHg 86%

    26 May, Sunday

    Time Temperature Precipitation Wind Pressure Humidity
    00:00 +27°C° 0 mm 1 mps 748 mmHg 86%
    01:00 +27°C° 0 mm 1 mps 748 mmHg 86%
    02:00 +27°C° 0 mm 1 mps 748 mmHg 88%
    03:00 +27°C° 0 mm 1 mps 747 mmHg 89%
    04:00 +27°C° 0 mm 1 mps 747 mmHg 90%
    05:00 +27°C° 0.3 mm 1 mps 747 mmHg 91%
    06:00 +27°C° 0.3 mm 1 mps 747 mmHg 91%
    07:00 +27°C° 0.3 mm 1 mps 748 mmHg 92%
    08:00 +28°C° 0.1 mm 1 mps 748 mmHg 87%
    09:00 +28°C° 0.1 mm 1 mps 749 mmHg 83%
    10:00 +29°C° 0.1 mm 2 mps 749 mmHg 78%
    11:00 +30°C° 0.7 mm 2 mps 749 mmHg 76%
    12:00 +30°C° 0.7 mm 2 mps 749 mmHg 75%
    13:00 +30°C° 0.7 mm 2 mps 749 mmHg 74%
    14:00 +30°C° 0.2 mm 2 mps 748 mmHg 76%
    15:00 +29°C° 0.2 mm 2 mps 747 mmHg 79%
    16:00 +28°C° 0.2 mm 1 mps 747 mmHg 82%
    17:00 +28°C° 0.1 mm 1 mps 747 mmHg 85%
    18:00 +28°C° 0.1 mm 1 mps 747 mmHg 87%
    19:00 +27°C° 0.1 mm 1 mps 748 mmHg 90%
    20:00 +27°C° 0.4 mm 1 mps 748 mmHg 91%
    21:00 +27°C° 0.4 mm 1 mps 748 mmHg 91%
    22:00 +26°C° 0.4 mm 1 mps 749 mmHg 92%
    23:00 +26°C° 2.7 mm 1 mps 749 mmHg 92%

    27 May, Monday

    Time Temperature Precipitation Wind Pressure Humidity
    00:00 +26°C° 2.7 mm 1 mps 748 mmHg 93%
    01:00 +26°C° 2.7 mm 1 mps 748 mmHg 93%
    02:00 +26°C° 9 mm 1 mps 747 mmHg 94%
    03:00 +26°C° 9 mm 1 mps 747 mmHg 95%
    04:00 +25°C° 9 mm 1 mps 746 mmHg 95%
    05:00 +25°C° 14.8 mm 1 mps 746 mmHg 95%
    06:00 +25°C° 14.8 mm 1 mps 747 mmHg 96%
    07:00 +25°C° 14.8 mm 1 mps 747 mmHg 96%
    08:00 +26°C° 11.6 mm 1 mps 747 mmHg 95%
    09:00 +26°C° 11.6 mm 1 mps 747 mmHg 95%
    10:00 +26°C° 11.6 mm 1 mps 748 mmHg 95%
    11:00 +26°C° 4.1 mm 2 mps 747 mmHg 95%
    12:00 +26°C° 4.1 mm 3 mps 747 mmHg 95%
    13:00 +27°C° 4.1 mm 4 mps 747 mmHg 95%
    14:00 +27°C° 35.6 mm 4 mps 746 mmHg 95%
    15:00 +27°C° 35.6 mm 3 mps 745 mmHg 95%
    16:00 +27°C° 35.6 mm 3 mps 745 mmHg 95%
    17:00 +27°C° 37.6 mm 2 mps 745 mmHg 95%
    18:00 +27°C° 37.6 mm 2 mps 746 mmHg 95%
    19:00 +26°C° 37.6 mm 1 mps 747 mmHg 95%
    20:00 +26°C° 29.6 mm 1 mps 747 mmHg 96%
    21:00 +26°C° 29.6 mm 1 mps 748 mmHg 96%
    22:00 +26°C° 29.6 mm 1 mps 748 mmHg 97%
    23:00 +26°C° 18.7 mm 1 mps 748 mmHg 97%

    28 May, Tuesday

    Time Temperature Precipitation Wind Pressure Humidity
    00:00 +26°C° 18.7 mm 1 mps 748 mmHg 96%
    01:00 +26°C° 18.7 mm 1 mps 747 mmHg 96%
    02:00 +26°C° 21.6 mm 1 mps 747 mmHg 96%
    03:00 +26°C° 21.6 mm 1 mps 746 mmHg 96%
    04:00 +26°C° 21.6 mm 1 mps 746 mmHg 96%
    05:00 +26°C° 35.2 mm 1 mps 746 mmHg 96%
    06:00 +26°C° 35.2 mm 1 mps 747 mmHg 96%
    07:00 +26°C° 35.2 mm 1 mps 747 mmHg 96%
    08:00 +26°C° 28.1 mm 2 mps 747 mmHg 95%
    09:00 +26°C° 28.1 mm 3 mps 748 mmHg 94%
    10:00 +26°C° 28.1 mm 4 mps 748 mmHg 94%
    11:00 +26°C° 8.4 mm 4 mps 748 mmHg 93%
    12:00 +26°C° 8.4 mm 3 mps 747 mmHg 92%
    13:00 +27°C° 8.4 mm 3 mps 747 mmHg 92%
    14:00 +27°C° 2.2 mm 3 mps 747 mmHg 91%
    15:00 +27°C° 2.2 mm 3 mps 747 mmHg 91%
    16:00 +27°C° 2.2 mm 3 mps 746 mmHg 91%
    17:00 +26°C° 2 mm 2 mps 747 mmHg 92%
    18:00 +26°C° 2 mm 2 mps 747 mmHg 93%
    19:00 +26°C° 2 mm 2 mps 748 mmHg 93%
    20:00 +26°C° 2.3 mm 2 mps 748 mmHg 94%
    21:00 +26°C° 2.3 mm 1 mps 748 mmHg 94%
    22:00 +26°C° 2.3 mm 1 mps 749 mmHg 95%
    23:00 +26°C° 2.8 mm 1 mps 748 mmHg 95%
    Show more